Location: Unspecified
(43.1387°N, 0.0000°E)
Time: 12:16:50
(UTC+00:00)

Oscar 11 - Visible Passes

Search period start: 04 April 2026 00:00
Search period end: 14 April 2026 00:00
Orbit: 590 x 603 km, 97.8° (Epoch: 29 March)

Date Brightness Start Highest point End Pass type
(mag) Time Alt. Az. Time Alt. Az. Time Alt. Az.
4 Apr 7.5 03:19:53 10° NNE 03:24:02 56° E 03:25:08 42° SSE visible
4 Apr 8.9 04:56:59 10° NNW 04:59:12 14° WNW 05:01:24 10° W visible
5 Apr 7.1 03:29:42 10° NNE 03:33:54 74° ESE 03:35:15 42° S visible
5 Apr 9.0 05:07:39 10° NW 05:08:56 11° WNW 05:10:14 10° W visible
6 Apr 6.9 03:39:33 10° NNE 03:43:47 86° WNW 03:45:22 38° SSW visible
7 Apr 9.9 02:16:29 10° ENE 02:17:33 11° E 02:18:39 10° ESE visible
7 Apr 6.9 03:49:27 10° N 03:53:37 67° WNW 03:55:29 32° SSW visible
8 Apr 9.6 02:25:17 10° ENE 02:27:32 14° E 02:28:55 12° ESE visible
8 Apr 7.2 03:59:23 10° N 04:03:28 51° WNW 04:05:35 26° SW visible
9 Apr 9.3 02:34:35 10° NE 02:37:29 18° E 02:39:01 15° ESE visible
9 Apr 7.5 04:09:21 10° N 04:13:16 40° WNW 04:15:41 20° SW visible
10 Apr 9.1 02:44:04 10° NE 02:47:25 23° E 02:49:07 18° SE visible
10 Apr 7.8 04:19:20 10° N 04:23:04 32° WNW 04:25:47 16° SW visible
11 Apr 8.7 02:53:39 10° NE 02:57:19 29° E 02:59:12 20° SE visible
11 Apr 8.2 04:29:23 10° NNW 04:32:52 25° WNW 04:35:52 12° WSW visible
12 Apr 8.3 03:03:19 10° NNE 03:07:14 36° E 03:09:18 22° SSE visible
12 Apr 8.5 04:39:30 10° NNW 04:42:37 20° WNW 04:45:44 10° WSW visible
13 Apr 7.8 03:13:02 10° NNE 03:17:06 47° E 03:19:23 23° SSE visible
13 Apr 8.7 04:49:42 10° NNW 04:52:22 17° WNW 04:55:01 10° WSW visible
